Location: Eaton
(41.3139°N, 82.0207°W)
Time: 13:36:05
(UTC+00:00)

Cosmos 1892 - Pass Details

Date: 17 June 2021
Orbit: 501 x 524 km, 82.5° (Epoch: 30 July)

Event Time Altitude Azimuth Distance (km) Brightness Sun altitude
Exits shadow 06:52:40 35° 292° (WNW) 862 3.7 -22.5°
Drops below altitude 10° 06:56:01 10° 350° (N) 1,773 6.2 -22.2°
Sets 06:58:18 0° 360° (N) 2,667 7.5 -22.1°
